Probability
0 0 0 0 0 0 0 0 0 0 0 0 0 0 0 0 0 0 0 0 1 2 3 2 1 1 4 5 5 5 4 3 3 2 1 0 0 0 0 0 0 0 0
0 0 0 0 0 0 0 0 0 0 0 0 0 0 0 0 0 0 0 0 1 2 3 2 1 0 2 4 4 4 4 3 3 2 1 0 0 0 0 0 0 0 0
0 0 0 0 0 0 0 0 0 0 0 0 0 0 0 0 0 0 0 0 0 1 2 2 1 0 1 2 3 4 4 3 3 2 1 0 0 0 0 0 0 0 0
0 0 0 0 0 0 0 0 0 0 0 0 0 0 0 0 0 1 0 0 0 0 1 1 0 0 0 1 2 3 4 3 3 2 1 0 0 0 0 0 0 0 0
0 0 0 0 0 0 0 0 0 0 0 0 0 0 0 0 0 0 0 0 0 0 0 0 0 0 0 0 0 2 3 3 2 1 0 0 0 0 0 0 0 0 0
0 0 0 0 0 0 0 0 1 1 1 0 0 0 0 0 0 0 0 0 0 0 0 0 0 0 0 0 0 0 1 2 2 2 1 0 0 0 0 0 0 0 0
0 0 0 0 0 0 0 0 1 2 1 0 0 0 0 0 0 0 0 0 0 0 0 0 0 0 0 0 0 0 0 1 1 1 1 0 0 0 0 0 0 0 0
0 0 0 0 0 0 0 0 1 1 1 0 0 0 0 0 0 0 0 0 0 0 0 0 0 0 0 0 0 0 0 0 0 0 0 0 0 0 0 0 0 0 0
0 0 0 0 0 0 0 0 0 0 0 0 0 0 0 0 0 0 0 0 0 0 0 0 0 0 0 0 0 0 0 0 0 0 0 0 0 0 0 0 0 0 0
0 0 0 0 0 0 0 0 0 0 0 0 0 0 0 0 0 0 0 0 0 0 0 0 0 0 0 0 0 0 0 0 0 0 0 0 0 0 0 0 0 0 0
0 0 0 0 0 0 0 0 0 0 0 0 0 0 0 0 0 0 0 0 0 0 0 0 0 0 0 0 0 0 0 0 0 0 0 0 0 0 0 0 0 0 0
0 0 0 0 0 0 0 0 0 0 0 0 0 0 1 1 1 0 0 0 0 0 0 0 0 0 0 0 0 0 0 0 0 0 0 0 0 0 0 0 0 0 0
0 0 0 0 0 0 0 0 0 0 0 0 0 0 1 2 2 0 0 0 0 0 0 0 0 0 0 0 0 0 0 0 0 0 0 0 0 0 0 0 0 0 0
0 0 0 0 0 0 0 0 0 0 0 0 0 0 1 2 1 0 0 0 0 0 0 0 0 0 0 0 0 0 0 0 0 0 0 0 0 0 0 0 0 0 0
0 0 0 0 0 0 0 0 0 0 0 0 0 0 0 1 2 1 1 0 0 0 0 0 0 0 0 0 0 0 0 0 0 0 0 0 0 0 0 0 0 0 0
0 0 0 0 0 0 0 0 0 0 0 0 0 0 0 1 2 3 2 1 1 0 0 0 0 0 0 0 0 0 0 0 0 0 0 0 0 0 0 0 0 0 0
0 0 0 0 0 0 0 0 0 0 0 0 0 0 0 1 2 3 3 2 1 0 0 0 0 0 0 0 0 0 0 0 0 0 0 0 0 0 0 0 0 0 0
0 0 0 0 0 0 0 0 0 0 0 0 0 0 0 0 1 2 3 2 1 0 0 0 0 0 0 0 0 0 0 0 0 0 0 0 0 0 0 0 0 0 0
0 0 0 0 0 0 0 0 0 0 0 0 0 0 0 0 1 1 1 1 0 0 0 0 0 0 0 0 0 0 0 0 0 0 0 0 0 0 0 0 0 0 0
0 0 0 0 0 0 0 0 0 0 0 0 0 0 0 0 0 0 0 0 0 0 0 0 0 0 0 0 0 0 0 0 0 0 0 0 0 0 0 0 0 0 0
0 0 0 0 0 0 0 0 0 0 0 0 0 0 0 0 0 0 0 0 0 0 0 0 0 0 0 0 0 0 0 0 0 0 0 0 0 0 0 0 0 0 0
0 0 0 0 0 0 0 0 0 0 0 0 0 0 0 0 0 0 0 0 0 0 0 0 0 0 0 0 0 0 0 0 0 0 0 0 0 0 0 0 0 0 0
0 0 0 0 0 0 0 0 0 0 0 0 0 0 0 0 0 0 0 0 0 0 0 0 0 0 0 0 0 0 0 0 0 0 0 0 0 0 0 0 0 0 0
0 0 0 0 0 0 0 0 0 0 0 0 0 0 0 0 0 0 0 0 0 0 0 0 0 0 0 0 0 0 0 0 0 0 0 0 0 0 0 0 0 0 0
0 0 0 0 0 0 0 0 0 0 0 0 0 0 0 0 0 0 0 0 0 0 0 0 0 0 0 0 0 0 0 0 0 0 0 0 0 0 0 0 0 0 0
0 0 0 0 0 0 0 0 0 0 0 0 0 0 0 0 0 0 0 0 0 0 0 0 0 0 0 0 0 0 0 0 0 0 0 0 0 0 0 0 0 0 0
Wind_Speed
2 2 2 2 2 2 2 1 2 2 2 1 1 0 1 1 1 1 1 2 2 3 3 3 3 3 3 4 4 3 3 2 1 1 1 1 2 3 3 3 3 3 4
2 2 2 2 2 2 2 2 2 2 2 1 1 1 1 1 1 1 0 2 2 2 3 3 3 2 2 3 3 3 2 1 1 2 1 1 2 2 3 2 3 3 2
4 3 3 2 2 2 3 3 3 3 2 1 0 1 1 1 1 1 0 1 1 2 2 3 2 2 2 3 3 4 4 3 2 2 2 2 3 1 2 3 3 3 2
3 3 3 2 2 3 3 3 3 3 2 1 1 1 1 1 2 1 1 0 1 1 2 3 3 2 2 2 2 2 3 4 3 1 1 1 1 2 2 2 2 3 3
3 3 3 3 3 2 2 3 3 2 2 1 2 2 1 1 1 1 1 1 1 2 2 3 3 2 2 2 2 2 2 2 3 2 2 1 1 1 2 3 3 2 3
3 2 2 2 2 2 2 2 2 2 1 1 1 2 2 1 1 1 2 1 1 1 2 2 2 2 2 2 2 2 2 2 3 2 2 3 2 2 2 3 3 4 4
3 2 2 2 2 2 2 2 1 1 1 1 1 1 2 2 2 2 2 2 1 1 1 1 2 2 1 2 2 2 1 2 2 2 2 2 2 2 2 2 3 4 3
2 2 3 2 2 2 1 1 1 1 1 1 1 1 1 1 1 1 1 1 1 1 1 1 1 1 1 1 2 1 1 1 2 2 2 2 1 1 2 2 2 4 4
3 2 2 1 2 2 1 1 1 1 1 0 1 1 1 1 1 1 1 1 1 1 1 1 1 1 1 2 2 1 1 1 1 1 1 1 1 1 1 2 2 3 5
3 3 2 2 2 1 1 0 1 1 1 0 1 1 1 1 1 1 1 1 1 1 1 1 2 2 1 2 2 1 1 1 1 1 1 2 2 2 2 2 2 3 4
4 3 3 2 1 1 0 0 0 0 1 1 2 2 2 2 2 2 1 1 1 1 2 2 2 2 1 1 2 1 1 1 1 1 1 2 2 2 2 2 2 3 3
4 3 3 2 1 1 0 1 1 1 1 1 2 2 2 2 2 2 1 1 1 1 1 2 2 2 1 1 2 2 1 2 1 1 1 2 1 2 2 2 2 3 3
4 3 3 3 2 2 1 1 1 1 1 1 2 2 2 2 1 1 1 1 1 1 1 2 1 1 1 1 1 1 1 1 2 2 2 2 2 2 2 2 2 2 3
5 4 4 4 3 3 2 2 2 2 2 2 2 1 1 1 1 1 1 1 1 1 1 1 1 1 1 1 1 1 1 1 1 1 2 2 3 3 3 3 3 3 3
6 6 5 4 4 3 3 2 2 2 2 2 2 2 2 1 1 1 1 1 1 1 1 1 1 1 1 1 1 1 1 1 1 1 2 3 3 3 3 3 3 3 3
8 7 6 5 5 5 4 4 3 3 3 3 3 2 2 2 1 1 1 1 1 1 1 1 1 1 0 1 1 1 1 2 2 2 2 2 2 3 4 5 5 5 5
8 8 7 7 6 6 5 5 4 3 3 3 3 2 2 2 2 1 1 1 0 1 1 1 1 1 0 1 1 1 1 1 1 1 2 2 2 3 3 5 6 6 7
8 8 7 6 5 5 4 4 4 4 4 4 3 3 3 2 2 2 1 1 1 0 0 1 1 1 0 0 1 1 0 0 1 1 2 2 3 3 3 3 4 5 5
8 7 7 6 5 5 5 5 4 4 4 4 4 3 3 3 2 2 2 1 1 1 0 0 0 0 1 1 1 2 0 0 1 2 2 2 3 5 6 3 4 5 4
5 5 5 4 5 5 5 6 5 5 5 5 4 3 3 3 3 3 2 1 1 1 1 0 0 0 1 1 1 1 0 1 1 2 2 3 4 6 6 3 3 5 5
5 5 5 5 6 6 6 6 6 7 6 4 3 3 3 4 3 2 2 2 1 1 1 0 1 1 1 1 2 2 0 1 1 2 2 3 5 6 6 4 3 5 5
4 5 5 5 5 6 7 7 7 6 4 4 4 3 3 3 3 3 2 2 2 1 1 1 1 1 1 2 2 3 2 2 1 2 2 3 5 5 5 4 5 6 5
5 5 6 6 5 6 7 9 7 5 5 5 4 4 3 3 3 3 3 2 2 2 1 1 1 1 1 2 3 3 3 3 2 2 3 4 5 4 4 5 6 4 2
5 5 6 6 6 6 7 8 6 6 6 6 5 4 4 3 3 2 3 3 3 2 2 2 2 2 2 2 2 2 2 2 2 2 3 4 3 3 3 4 3 2 2
5 5 7 8 8 6 7 6 6 7 7 6 5 5 4 4 3 3 3 3 3 4 4 3 3 3 3 3 3 2 2 2 2 1 1 1 1 1 2 2 2 2 2
5 6 7 8 7 7 7 6 7 8 8 6 6 5 4 4 4 3 2 3 3 5 5 5 4 3 4 4 3 3 3 3 2 0 0 1 2 2 2 2 3 2 3
Wind_Direction
269 295 297 303 325 329 332 327 318 313 328 330 313 276 265 280 292 258 219 215 200 186 185 184 182 185 188 192 186 183 187 196 172 165 262 271 233 216 219 217 211 217 219
268 290 304 314 308 297 304 308 294 292 288 270 264 228 238 251 240 240 246 217 182 183 182 169 175 181 182 185 183 179 176 181 163 155 150 253 279 254 240 224 214 218 224
231 250 268 282 287 284 284 287 284 283 282 277 290 14 32 350 326 287 308 274 176 176 162 156 164 170 170 184 188 185 183 186 195 175 161 173 222 271 264 235 220 217 231
229 234 244 260 265 269 276 280 283 283 276 248 201 185 191 225 241 231 217 251 138 158 152 144 148 160 164 168 183 184 183 178 189 189 187 196 177 191 257 267 239 236 243
224 227 235 237 246 264 280 283 287 282 265 240 205 192 199 229 240 196 176 192 145 138 141 143 149 158 162 159 157 159 166 179 187 188 177 186 242 210 209 260 269 266 248
229 230 244 250 265 281 290 291 297 292 272 225 203 197 186 174 172 209 194 190 149 139 132 135 144 157 165 169 171 162 166 190 192 197 195 192 196 209 216 249 268 265 259
227 232 244 256 275 289 290 289 281 282 266 214 192 193 181 173 187 205 195 176 159 165 156 141 143 150 158 158 150 149 169 191 191 207 213 213 215 206 225 247 267 273 277
230 230 238 240 255 265 264 284 273 270 257 209 197 182 165 157 184 190 179 171 185 191 165 153 142 130 135 138 135 141 171 171 181 209 218 214 224 228 231 233 256 279 277
240 240 248 248 258 265 264 255 254 279 292 222 153 128 118 112 115 102 101 135 160 136 121 136 128 123 137 143 145 148 169 162 174 194 210 221 224 234 248 243 234 247 274
251 245 245 240 257 251 256 286 261 265 301 49 90 83 82 108 115 104 108 122 123 126 137 134 123 128 131 128 128 144 165 167 199 196 195 224 226 234 241 243 252 248 254
238 235 240 234 243 259 190 107 324 26 45 59 73 77 72 78 92 98 100 110 116 123 129 135 135 134 131 130 132 146 158 165 205 239 231 248 238 240 250 245 246 253 254
231 224 223 223 222 238 193 160 159 126 107 93 89 87 83 83 82 80 74 100 120 126 142 140 134 132 133 133 140 145 156 165 189 215 222 241 237 241 252 250 258 264 264
230 220 212 212 210 212 205 183 181 164 148 117 105 98 93 90 88 84 74 86 98 86 96 103 121 130 124 115 130 161 186 200 206 209 216 235 232 243 253 261 265 272 283
229 220 219 219 214 207 202 191 194 178 163 142 133 139 152 146 140 124 101 95 96 95 95 100 107 110 115 133 160 167 185 203 212 219 231 238 235 237 244 256 260 269 276
230 221 219 218 211 207 208 200 193 186 172 159 163 184 182 159 138 128 112 97 100 103 113 108 97 94 116 139 134 174 182 196 222 248 256 258 259 256 262 268 266 265 267
231 224 219 214 211 208 205 201 196 192 177 178 187 191 174 154 153 151 129 107 99 93 105 122 133 127 85 63 89 136 174 205 219 246 275 283 272 281 288 288 287 276 270
232 224 217 213 211 207 200 198 195 180 176 186 189 189 181 174 181 159 131 133 136 73 85 136 140 143 95 39 53 69 135 204 244 268 280 292 296 295 284 290 294 288 284
227 221 215 213 210 203 195 189 178 176 180 185 190 191 185 185 177 159 164 183 173 167 153 164 170 176 245 16 45 46 60 338 303 287 276 279 289 293 301 304 301 288 285
221 216 210 204 198 196 190 177 180 183 188 194 198 197 189 183 178 184 195 192 164 161 185 190 170 192 286 351 17 22 40 327 301 303 308 301 296 306 315 310 302 297 294
218 208 200 191 193 197 180 179 187 190 202 203 201 196 188 185 191 198 196 184 166 178 181 217 210 227 272 328 340 350 129 298 305 312 305 302 305 312 315 298 296 301 302
217 199 190 195 200 188 176 188 194 205 205 192 183 184 188 189 192 190 181 175 171 163 178 235 277 266 276 299 304 309 256 245 283 297 303 302 314 315 318 316 302 305 314
218 201 199 209 201 184 182 195 208 207 184 174 177 186 191 191 181 177 179 172 165 164 201 232 289 286 275 286 287 296 293 293 264 275 289 296 315 321 322 322 325 324 323
221 208 204 211 208 194 190 201 208 183 171 173 182 188 189 191 184 179 180 173 173 179 203 215 247 278 283 279 287 297 301 299 293 274 287 302 316 321 321 328 331 327 324
221 212 203 208 215 208 204 207 191 173 173 180 186 184 183 189 188 185 183 182 187 192 203 215 236 259 272 272 278 285 285 292 286 281 287 300 313 325 330 331 327 323 322
219 207 207 213 217 208 209 205 185 172 178 183 185 184 187 186 188 193 198 197 203 197 200 212 213 219 241 254 272 285 278 271 268 290 324 327 326 325 325 326 327 325 322
219 214 216 218 216 204 207 202 187 178 178 185 188 187 186 187 185 185 207 230 221 223 225 220 216 231 242 256 265 275 281 281 280 300 312 305 303 300 303 307 312 311 311